User: anonymous   Login
Location: Sebastopol
(38.4021°N, 122.8239°W)
Time: 06:08:56
(UTC+00:00)
Language:

ADEOS - Orbit

View from above orbital plane
View from above orbital plane
View from above satellite
View from above satellite

Ground track
Ground track

The orbit data is extracted from the following two-line orbital elements,

1 24277U 96046A   21015.48213265 -.00000035  00000-0  43176-5 0  9992
2 24277  98.8991   1.0352 0002173 101.4400 258.7025 14.29459666272903
Epoch (UTC): 15 January 2021 11:34:16
Eccentricity: 0.0002173
inclination: 98.8991°
perigee height: 792 km
apogee height: 795 km
right ascension of ascending node: 1.0352°
argument of perigee: 101.4400°
revolutions per day: 14.29459666
mean anomaly at epoch: 258.7025°
orbit number at epoch: 27290

The dashed part of the orbit path shows where the satellite is in the earth's shadow,  

DLR